When you browse on this site, cookies collect data to enhance your experience and personalize the content and advertising you see.
Visit our Privacy Policy to learn more. By continuing to use the site, you agree to this use of cookies and data.
  • In Hungary
  • List of Countries
  • For 7 days
  • Water Temperature
  • Weather Map
  • News
  • Weather Widgets
  • user-avatar
    Login

    Hourly Weather Vyazovoe

    Today, 6 June, Saturday

    Time Temperature Precipitation Wind Pressure Humidity
    00:00 +17°C° 1.3 mm 5 mps 755 mmHg 74%
    01:00 +16°C° 1.3 mm 5 mps 755 mmHg 79%
    02:00 +16°C° 0 mm 5 mps 755 mmHg 75%
    03:00 +16°C° 0 mm 5 mps 755 mmHg 71%
    04:00 +15°C° 0 mm 5 mps 755 mmHg 56%
    05:00 +15°C° 0.4 mm 5 mps 755 mmHg 60%
    06:00 +15°C° 0.4 mm 5 mps 755 mmHg 64%
    07:00 +16°C° 0.4 mm 5 mps 754 mmHg 67%
    08:00 +17°C° 0.3 mm 5 mps 755 mmHg 66%
    09:00 +20°C° 0.3 mm 4 mps 755 mmHg 64%
    10:00 +21°C° 0.3 mm 4 mps 755 mmHg 63%
    11:00 +22°C° 0.4 mm 4 mps 755 mmHg 60%
    12:00 +25°C° 0.4 mm 4 mps 755 mmHg 57%
    13:00 +26°C° 0.4 mm 4 mps 755 mmHg 54%
    14:00 +26°C° 0.4 mm 4 mps 755 mmHg 55%
    15:00 +26°C° 0.4 mm 4 mps 755 mmHg 56%
    16:00 +26°C° 0.4 mm 5 mps 756 mmHg 57%
    17:00 +25°C° 0.4 mm 4 mps 756 mmHg 61%
    18:00 +23°C° 0.4 mm 4 mps 756 mmHg 65%
    19:00 +22°C° 0.4 mm 3 mps 756 mmHg 70%
    20:00 +21°C° 0.1 mm 2 mps 756 mmHg 74%
    21:00 +19°C° 0.1 mm 2 mps 756 mmHg 77%
    22:00 +19°C° 0.1 mm 1 mps 757 mmHg 81%
    23:00 +18°C° 0 mm 1 mps 757 mmHg 81%

    Tomorrow, 7 June, Sunday

    Time Temperature Precipitation Wind Pressure Humidity
    00:00 +18°C° 0 mm 1 mps 757 mmHg 82%
    01:00 +18°C° 0 mm 1 mps 757 mmHg 82%
    02:00 +18°C° 0 mm 1 mps 757 mmHg 83%
    03:00 +16°C° 0 mm 1 mps 757 mmHg 84%
    04:00 +16°C° 0 mm 2 mps 757 mmHg 85%
    05:00 +17°C° 0.4 mm 2 mps 757 mmHg 84%
    06:00 +18°C° 0.4 mm 2 mps 757 mmHg 82%
    07:00 +19°C° 0.4 mm 2 mps 757 mmHg 81%
    08:00 +18°C° 1.1 mm 2 mps 757 mmHg 83%
    09:00 +18°C° 1.1 mm 2 mps 757 mmHg 84%
    10:00 +18°C° 1.1 mm 2 mps 758 mmHg 86%
    11:00 +18°C° 0.5 mm 2 mps 758 mmHg 86%
    12:00 +18°C° 0.5 mm 2 mps 758 mmHg 86%
    13:00 +18°C° 0.5 mm 2 mps 758 mmHg 85%
    14:00 +18°C° 0.7 mm 2 mps 757 mmHg 87%
    15:00 +18°C° 0.7 mm 2 mps 757 mmHg 89%
    16:00 +17°C° 0.7 mm 3 mps 757 mmHg 91%
    17:00 +17°C° 0.5 mm 3 mps 757 mmHg 92%
    18:00 +17°C° 0.5 mm 3 mps 757 mmHg 93%
    19:00 +17°C° 0.5 mm 3 mps 757 mmHg 94%
    20:00 +17°C° 0.2 mm 3 mps 757 mmHg 95%
    21:00 +17°C° 0.2 mm 3 mps 757 mmHg 95%
    22:00 +16°C° 0.2 mm 3 mps 757 mmHg 96%
    23:00 +16°C° 0 mm 3 mps 757 mmHg 96%

    Day after tomorrow, 8 June, Monday

    Time Temperature Precipitation Wind Pressure Humidity
    00:00 +16°C° 0 mm 3 mps 757 mmHg 96%
    01:00 +16°C° 0 mm 2 mps 756 mmHg 97%
    02:00 +16°C° 0 mm 2 mps 756 mmHg 96%
    03:00 +16°C° 0 mm 2 mps 756 mmHg 94%
    04:00 +16°C° 0 mm 2 mps 756 mmHg 93%
    05:00 +17°C° 0 mm 3 mps 756 mmHg 90%
    06:00 +17°C° 0 mm 3 mps 756 mmHg 86%
    07:00 +17°C° 0 mm 4 mps 757 mmHg 83%
    08:00 +19°C° 0.2 mm 4 mps 757 mmHg 78%
    09:00 +20°C° 0.2 mm 5 mps 757 mmHg 72%
    10:00 +21°C° 0.2 mm 5 mps 757 mmHg 67%
    11:00 +22°C° 0.3 mm 6 mps 757 mmHg 64%
    12:00 +22°C° 0.3 mm 6 mps 756 mmHg 61%
    13:00 +23°C° 0.3 mm 6 mps 756 mmHg 57%
    14:00 +23°C° 0 mm 6 mps 756 mmHg 55%
    15:00 +24°C° 0 mm 6 mps 756 mmHg 52%
    16:00 +26°C° 0 mm 6 mps 756 mmHg 49%
    17:00 +24°C° 0 mm 6 mps 756 mmHg 52%
    18:00 +23°C° 0 mm 5 mps 756 mmHg 55%
    19:00 +22°C° 0 mm 5 mps 756 mmHg 59%
    20:00 +21°C° 0 mm 4 mps 756 mmHg 60%
    21:00 +20°C° 0 mm 4 mps 757 mmHg 62%
    22:00 +20°C° 0 mm 3 mps 757 mmHg 64%
    23:00 +20°C° 0 mm 4 mps 757 mmHg 61%

    9 June, Tuesday

    Time Temperature Precipitation Wind Pressure Humidity
    00:00 +19°C° 0 mm 5 mps 757 mmHg 58%
    01:00 +19°C° 0 mm 6 mps 757 mmHg 56%
    02:00 +19°C° 0 mm 6 mps 757 mmHg 56%
    03:00 +17°C° 0 mm 6 mps 757 mmHg 55%
    04:00 +17°C° 0 mm 6 mps 758 mmHg 55%
    05:00 +17°C° 0 mm 6 mps 758 mmHg 58%
    06:00 +17°C° 0 mm 6 mps 758 mmHg 60%
    07:00 +17°C° 0 mm 5 mps 758 mmHg 63%
    08:00 +20°C° 0 mm 6 mps 759 mmHg 60%
    09:00 +21°C° 0 mm 7 mps 759 mmHg 57%
    10:00 +23°C° 0 mm 7 mps 759 mmHg 54%
    11:00 +23°C° 0 mm 7 mps 759 mmHg 54%
    12:00 +23°C° 0 mm 7 mps 759 mmHg 53%
    13:00 +24°C° 0 mm 7 mps 759 mmHg 52%
    14:00 +24°C° 0 mm 7 mps 759 mmHg 51%
    15:00 +26°C° 0 mm 7 mps 759 mmHg 49%
    16:00 +26°C° 0 mm 7 mps 759 mmHg 48%
    17:00 +24°C° 0 mm 7 mps 759 mmHg 51%
    18:00 +23°C° 0 mm 6 mps 759 mmHg 53%
    19:00 +22°C° 0 mm 6 mps 759 mmHg 56%
    20:00 +21°C° 0 mm 6 mps 759 mmHg 59%
    21:00 +20°C° 0 mm 6 mps 759 mmHg 61%
    22:00 +19°C° 0 mm 6 mps 759 mmHg 64%
    23:00 +20°C° 0 mm 5 mps 759 mmHg 61%

    10 June, Wednesday

    Time Temperature Precipitation Wind Pressure Humidity
    00:00 +20°C° 0 mm 5 mps 759 mmHg 57%
    01:00 +20°C° 0 mm 5 mps 759 mmHg 54%
    02:00 +20°C° 0 mm 6 mps 759 mmHg 52%
    03:00 +20°C° 0 mm 6 mps 759 mmHg 50%
    04:00 +20°C° 0 mm 7 mps 759 mmHg 48%
    05:00 +20°C° 0 mm 7 mps 759 mmHg 51%
    06:00 +20°C° 0 mm 7 mps 759 mmHg 54%
    07:00 +20°C° 0 mm 7 mps 759 mmHg 57%
    08:00 +22°C° 0.1 mm 6 mps 759 mmHg 54%
    09:00 +24°C° 0.1 mm 6 mps 759 mmHg 51%
    10:00 +27°C° 0.1 mm 6 mps 759 mmHg 47%
    11:00 +28°C° 0 mm 6 mps 760 mmHg 43%
    12:00 +30°C° 0 mm 7 mps 760 mmHg 39%
    13:00 +32°C° 0 mm 7 mps 760 mmHg 36%
    14:00 +33°C° 0 mm 6 mps 760 mmHg 36%
    15:00 +33°C° 0 mm 6 mps 760 mmHg 37%
    16:00 +33°C° 0 mm 5 mps 759 mmHg 37%
    17:00 +32°C° 0 mm 4 mps 759 mmHg 42%
    18:00 +30°C° 0 mm 4 mps 759 mmHg 48%
    19:00 +29°C° 0 mm 3 mps 759 mmHg 53%
    20:00 +28°C° 0 mm 3 mps 759 mmHg 52%
    21:00 +26°C° 0 mm 4 mps 759 mmHg 51%
    22:00 +25°C° 0 mm 4 mps 759 mmHg 50%
    23:00 +25°C° 0.2 mm 4 mps 760 mmHg 53%

    11 June, Thursday

    Time Temperature Precipitation Wind Pressure Humidity
    00:00 +23°C° 0.2 mm 4 mps 760 mmHg 56%
    01:00 +22°C° 0.2 mm 4 mps 760 mmHg 60%
    02:00 +21°C° 0 mm 4 mps 760 mmHg 60%
    03:00 +21°C° 0 mm 4 mps 759 mmHg 61%
    04:00 +20°C° 0 mm 5 mps 759 mmHg 61%
    05:00 +21°C° 0 mm 4 mps 760 mmHg 61%
    06:00 +22°C° 0 mm 4 mps 760 mmHg 60%
    07:00 +23°C° 0 mm 4 mps 760 mmHg 60%
    08:00 +26°C° 0 mm 4 mps 760 mmHg 55%
    09:00 +27°C° 0 mm 4 mps 760 mmHg 51%
    10:00 +29°C° 0 mm 4 mps 760 mmHg 47%
    11:00 +32°C° 0 mm 4 mps 760 mmHg 43%
    12:00 +33°C° 0 mm 4 mps 760 mmHg 39%
    13:00 +34°C° 0 mm 4 mps 759 mmHg 35%
    14:00 +34°C° 0 mm 3 mps 759 mmHg 34%
    15:00 +34°C° 0 mm 3 mps 759 mmHg 34%
    16:00 +34°C° 0 mm 2 mps 759 mmHg 33%
    17:00 +32°C° 0 mm 2 mps 758 mmHg 38%
    18:00 +31°C° 0 mm 2 mps 758 mmHg 43%
    19:00 +30°C° 0 mm 2 mps 758 mmHg 48%
    20:00 +28°C° 0 mm 2 mps 758 mmHg 48%
    21:00 +27°C° 0 mm 2 mps 758 mmHg 49%
    22:00 +25°C° 0 mm 3 mps 758 mmHg 49%
    23:00 +25°C° 0 mm 3 mps 758 mmHg 50%
    Show more